User: anonymous   Login
Location: Syracuse
(43.0480°N, 76.1480°W)
Time: 01:18:11
(UTC-04:00)
Language:

Cosmos 1140 Rocket - Orbit

View from above orbital plane
View from above orbital plane
View from above satellite
View from above satellite

Ground track
Ground track

The orbit data is extracted from the following two-line orbital elements,

1 11574U 79089B   15182.31879488  .00000053  00000-0  24989-4 0  9990
2 11574 074.0704 102.1257 0016300 193.4190 166.6534 14.40477781873919
Epoch (UTC): 01 July 2015 07:39:03
Eccentricity: 0.0016300
inclination: 74.0704°
perigee height: 745 km
apogee height: 768 km
right ascension of ascending node: 102.1257°
argument of perigee: 193.4190°
revolutions per day: 14.40477781
mean anomaly at epoch: 166.6534°
orbit number at epoch: 87391

The dashed part of the orbit path shows where the satellite is in the earth's shadow,  

DLR